[[{"header":{"parameterUnit":"m.s-1","parameterCategory":1,"la1":30.2991,"la2":30.254,"lo1":-89.0895,"lo2":-89.0444,"dy":0.0017,"dx":0.0017,"nx":28,"ny":28,"refTime":"2023-10-29T03:00:00:Z","depth":0,"parameterNumber":2,"parameterNumberName":"U-component_of_WINDS"},"data":[0,0,0,0,0,0,0,0,0,0,0,0,0,0,0,0,0,0,0,0,0,0,0,0,0,0,0,0,0,0,0,0,0,0,0,0,0,0,0,0,0,0,0,0,0,0,0,0,0,0,0,0,0,0,0,0,0,0,-3.5353,-3.5352,0,-3.531,-3.531,-3.5309,-3.523,-3.5228,-3.5227,-3.5225,-3.5183,-3.5183,-3.5184,0,0,0,0,0,0,0,0,0,0,0,0,0,-3.5367,-3.5367,-3.5353,-3.5352,-3.5352,-3.531,-3.531,-3.5309,-3.523,-3.5228,-3.5226,-3.5225,-3.5183,-3.5183,-3.5184,0,0,0,0,0,0,0,0,0,0,0,0,0,-3.5347,-3.5367,-3.5353,-3.5307,-3.5303,-3.531,-3.531,-3.5309,-3.523,-3.5228,-3.5226,-3.5224,-3.5183,-3.5183,-3.5184,-3.5233,0,0,-3.5185,-3.5185,0,0,0,0,0,0,0,0,-3.5348,-3.5346,-3.5314,-3.531,-3.5305,-3.5273,-3.5299,-3.5284,-3.5231,-3.5258,-3.5225,-3.5223,-3.5215,-3.5213,-3.521,-3.5231,-3.5229,-3.5185,-3.5185,-3.5186,-3.5186,0,0,0,0,0,0,0,-3.5349,-3.5348,-3.5336,-3.5314,-3.5308,-3.5289,-3.5284,-3.5296,-3.525,-3.5255,-3.525,-3.5246,-3.5212,-3.5209,-3.5208,-3.5229,-3.5185,-3.5186,-3.5186,-3.5186,-3.5289,-3.5291,0,0,0,0,0,0,-3.5357,-3.5349,-3.5337,-3.5335,-3.5321,-3.5291,-3.5285,-3.5286,-3.525,-3.5242,-3.5248,-3.5242,-3.521,-3.5208,-3.5206,-3.5261,-3.5186,-3.5186,-3.5186,-3.5286,-3.5289,-3.5292,0,0,0,0,0,0,-3.5358,-3.5357,-3.5339,-3.534,-3.5337,-3.5293,-3.5295,-3.5286,-3.5283,-3.5244,-3.5235,-3.5253,-3.5208,-3.5206,-3.5227,-3.5259,-3.5186,-3.5187,-3.5283,-3.5287,-3.529,-3.5372,0,0,0,0,0,0,-3.5359,-3.5358,-3.5375,-3.5341,-3.5337,-3.536,-3.5297,-3.5287,-3.5284,-3.5277,-3.5247,-3.524,-3.5206,-3.5227,-3.5227,-3.5258,-3.5187,-3.528,-3.5285,-3.5289,-3.5366,-3.5378,-3.5388,0,0,0,0,0,-3.5359,-3.54,-3.5377,-3.5376,-3.5358,-3.5362,-3.5359,-3.5319,-3.5287,-3.5305,-3.528,-3.5241,-3.5256,-3.523,-3.523,-3.5261,-3.5278,-3.5284,-3.5289,-3.5361,-3.5376,-3.5388,0,0,0,0,0,0,-3.5439,-3.5395,-3.5368,-3.5399,-3.5385,-3.5348,-3.5369,-3.5336,-3.533,-3.5324,-3.5275,-3.5269,-3.5296,-3.5281,-3.5253,-3.5307,-3.5261,-3.5267,-3.5316,-3.5329,-3.534,-3.5342,-3.5188,0,0,0,0,0,-3.546,-3.5466,-3.5428,-3.5459,-3.5453,-3.5413,-3.5413,-3.5383,-3.5367,-3.5361,-3.5337,-3.5323,-3.5324,-3.5326,-3.5325,-3.5364,-3.5357,-3.5386,-3.5397,-3.5406,-3.5411,-3.5431,-3.5444,-3.531,-3.531,-3.531,0,0,-3.5504,-3.548,-3.5487,-3.5474,-3.5459,-3.5468,-3.5408,-3.5419,-3.5425,-3.5362,-3.538,-3.5363,-3.5344,-3.5375,-3.5387,-3.5363,-3.5447,-3.5413,-3.5421,-3.5421,-3.5438,-3.5451,-3.5462,-3.5314,-3.5313,-3.5312,0,0,-3.5587,-3.557,-3.5594,-3.5581,-3.556,-3.5533,-3.5539,-3.5508,-3.5494,-3.5511,-3.5465,-3.5472,-3.5475,-3.5464,-3.5458,-3.5539,-3.5503,-3.5541,-3.5597,-3.5617,-3.5627,-3.5637,-3.5665,-3.5676,-3.5546,-3.5547,-3.5547,0,-3.5643,-3.5653,-3.561,-3.5624,-3.562,-3.5565,-3.5589,-3.5578,-3.5559,-3.5557,-3.5531,-3.5534,-3.5518,-3.5545,-3.5565,-3.5562,-3.5568,-3.5543,-3.5629,-3.5638,-3.5646,-3.5672,-3.5683,-3.5551,-3.5551,-3.555,-3.555,0,-3.5724,-3.5732,-3.5754,-3.5735,-3.5734,-3.5753,-3.5714,-3.5718,-3.569,-3.5666,-3.5685,-3.5664,-3.5658,-3.5662,-3.5635,-3.5686,-3.5671,-3.5638,-3.559,-3.5664,-3.5688,-3.5698,-3.5558,-3.5556,-3.5555,-3.5554,0,0,-3.5854,-3.5813,-3.5821,-3.5813,-3.5786,-3.5792,-3.5809,-3.5803,-3.5807,-3.5796,-3.5809,-3.5815,-3.5784,-3.5778,-3.5749,-3.5767,-3.5832,-3.5731,-3.573,-3.5749,-3.5887,-3.5911,-3.5924,-3.5809,-3.581,-3.5812,-3.5888,0,-3.593,-3.5956,-3.5919,-3.5954,-3.596,-3.5909,-3.5924,-3.591,-3.5889,-3.5893,-3.587,-3.5874,-3.5833,-3.5829,-3.5845,-3.5821,-3.5859,-3.5815,-3.582,-3.5821,-3.5825,-3.5936,-3.5962,-3.6034,-3.5897,-3.5899,-3.59,0,-3.6022,-3.6015,-3.605,-3.6022,-3.6024,-3.6038,-3.603,-3.6034,-3.6017,-3.6001,-3.5996,-3.5961,-3.5977,-3.5932,-3.5953,-3.5925,-3.5925,-3.5914,-3.5916,-3.5914,-3.5864,-3.5936,-3.6057,-3.6067,-3.5915,-3.5913,-3.5912,0,-3.6112,-3.6112,-3.6133,-3.6127,-3.6096,-3.6107,-3.6094,-3.6075,-3.6075,-3.6068,-3.6067,-3.6063,-3.606,-3.6058,-3.6024,-3.5995,-3.605,-3.6002,-3.6036,-3.6037,-3.6049,-3.6048,-3.617,-3.6052,-3.6052,-3.6051,-3.6051,0,-3.62,-3.6224,-3.6173,-3.6186,-3.6211,-3.6169,-3.6195,-3.6178,-3.6162,-3.6171,-3.6127,-3.6137,-3.6091,-3.6097,-3.607,-3.6092,-3.6091,-3.6079,-3.6071,-3.6082,-3.6083,-3.608,-3.6074,-3.6054,-3.6054,-3.6053,-3.6053,0,-3.6304,-3.6271,-3.629,-3.6259,-3.6252,-3.6272,-3.6245,-3.6257,-3.6234,-3.6246,-3.6246,-3.6211,-3.6214,-3.618,-3.6178,-3.616,-3.6194,-3.6178,-3.6199,-3.6194,-3.623,-3.6226,-3.6353,-3.6367,-3.6241,-3.6242,-3.6243,0,-3.6361,-3.6378,-3.6349,-3.6352,-3.6341,-3.6347,-3.6346,-3.6306,-3.6307,-3.629,-3.6304,-3.6304,-3.6301,-3.631,-3.6284,-3.6283,-3.6266,-3.631,-3.6265,-3.6275,-3.6265,-3.6264,-3.6265,-3.6319,-3.6321,-3.6322,-3.6323,0,-3.6467,-3.645,-3.645,-3.6445,-3.6445,-3.6439,-3.643,-3.6435,-3.6392,-3.6395,-3.6399,-3.6397,-3.6395,-3.6396,-3.6389,-3.6377,-3.6343,-3.6338,-3.6346,-3.6356,-3.6367,-3.636,-3.6224,-3.6335,-3.6334,-3.6333,-3.6332,-3.6332,-3.6548,-3.6561,-3.6543,-3.6544,-3.6534,-3.6527,-3.6536,-3.6514,-3.6516,-3.6511,-3.6488,-3.6495,-3.648,-3.6467,-3.6459,-3.6464,-3.6443,-3.6454,-3.6457,-3.646,-3.6466,-3.6368,-3.6463,-3.6463,-3.6463,-3.6462,-3.6462,0,-3.6651,-3.6637,-3.6639,-3.6628,-3.663,-3.6598,-3.6587,-3.6591,-3.6598,-3.6586,-3.6585,-3.659,-3.6591,-3.6566,-3.6564,-3.6573,-3.6558,-3.6574,-3.6572,-3.657,-3.6486,-3.6479,-3.6586,-3.6586,-3.6586,-3.6586,-3.6586,-3.6586,-3.6704,-3.6724,-3.6705,-3.672,-3.6706,-3.6712,-3.6709,-3.6703,-3.6693,-3.67,-3.67,-3.6684,-3.6667,-3.6664,-3.6664,-3.6656,-3.6657,-3.6679,-3.6666,-3.6588,-3.6576,-3.6564,-3.6557,-3.668,-3.668,-3.6749,-3.675,-3.6751]},{"header":{"parameterUnit":"m.s-1","parameterCategory":1,"la1":30.2991,"la2":30.254,"lo1":-89.0895,"lo2":-89.0444,"dy":0.0017,"dx":0.0017,"nx":28,"ny":28,"refTime":"2023-10-29T03:00:00:Z","depth":0,"parameterNumber":3,"parameterNumberName":"V-component_of_WINDS"},"data":[0,0,0,0,0,0,0,0,0,0,0,0,0,0,0,0,0,0,0,0,0,0,0,0,0,0,0,0,0,0,0,0,0,0,0,0,0,0,0,0,0,0,0,0,0,0,0,0,0,0,0,0,0,0,0,0,0,0,1.393,1.393,0,1.3926,1.3926,1.3926,1.3945,1.3945,1.3946,1.3946,1.3937,1.3936,1.3935,0,0,0,0,0,0,0,0,0,0,0,0,0,1.395,1.395,1.393,1.393,1.393,1.3926,1.3926,1.3926,1.3945,1.3945,1.3946,1.3947,1.3937,1.3936,1.3935,0,0,0,0,0,0,0,0,0,0,0,0,0,1.3943,1.395,1.393,1.3939,1.394,1.3926,1.3926,1.3926,1.3944,1.3945,1.3946,1.3947,1.3937,1.3936,1.3935,1.3911,0,0,1.3931,1.3931,0,0,0,0,0,0,0,0,1.3944,1.3943,1.3938,1.3938,1.3939,1.3937,1.393,1.3921,1.3944,1.3943,1.3946,1.3947,1.3936,1.3935,1.3932,1.3911,1.391,1.3931,1.3931,1.393,1.393,0,0,0,0,0,0,0,1.3944,1.3943,1.3929,1.3938,1.3939,1.3942,1.3942,1.3928,1.3934,1.3943,1.3944,1.3944,1.3936,1.3933,1.3932,1.391,1.3931,1.393,1.393,1.3929,1.387,1.387,0,0,0,0,0,0,1.3944,1.3943,1.3929,1.3928,1.3944,1.3941,1.3941,1.3937,1.3935,1.3935,1.3943,1.3945,1.3935,1.3933,1.3932,1.3904,1.393,1.3929,1.3928,1.3871,1.387,1.3869,0,0,0,0,0,0,1.3944,1.3943,1.3929,1.3936,1.3935,1.394,1.3935,1.3936,1.3933,1.3935,1.3936,1.3939,1.3935,1.3933,1.3917,1.3904,1.3929,1.3928,1.3872,1.3871,1.387,1.3849,0,0,0,0,0,0,1.3945,1.3943,1.3934,1.3936,1.3934,1.3915,1.3934,1.3936,1.3932,1.3934,1.3931,1.3931,1.3936,1.3919,1.3916,1.3903,1.3927,1.3873,1.3872,1.387,1.3851,1.3847,1.3844,0,0,0,0,0,1.3946,1.3927,1.3934,1.3932,1.3924,1.3914,1.3913,1.392,1.3931,1.3922,1.3923,1.3932,1.3906,1.3917,1.3914,1.39,1.3874,1.3872,1.387,1.3852,1.3848,1.3844,0,0,0,0,0,0,1.3921,1.3927,1.3935,1.3917,1.3915,1.3918,1.3906,1.3915,1.3909,1.3911,1.3918,1.3917,1.39,1.3898,1.391,1.3878,1.3892,1.3889,1.3879,1.3875,1.3872,1.3872,1.3926,0,0,0,0,0,1.3915,1.3907,1.3912,1.3896,1.3895,1.3901,1.3897,1.3903,1.3901,1.3899,1.3899,1.3896,1.3887,1.3881,1.3873,1.3851,1.3851,1.3841,1.3837,1.3834,1.3832,1.382,1.3816,1.3863,1.3863,1.3863,0,0,1.3899,1.3901,1.3896,1.3891,1.3891,1.3882,1.39,1.389,1.3883,1.3897,1.3882,1.3882,1.3879,1.386,1.3851,1.3858,1.3819,1.3832,1.383,1.3828,1.3818,1.3814,1.381,1.3862,1.3862,1.3862,0,0,1.3866,1.3868,1.3855,1.3855,1.3855,1.3859,1.3856,1.3858,1.3859,1.3845,1.3855,1.3847,1.3832,1.3829,1.3826,1.3795,1.3802,1.3792,1.3774,1.3763,1.3759,1.3756,1.3745,1.3741,1.379,1.379,1.379,0,1.3846,1.3836,1.3846,1.3836,1.3834,1.3849,1.3835,1.3834,1.383,1.3828,1.3836,1.3819,1.3817,1.3798,1.3791,1.3788,1.3784,1.3792,1.3759,1.3756,1.3753,1.3743,1.3739,1.3789,1.3789,1.3789,1.3789,0,1.3811,1.3804,1.3793,1.3792,1.3788,1.3776,1.3784,1.3779,1.3786,1.3789,1.3775,1.3774,1.3767,1.3763,1.3768,1.3745,1.3749,1.3758,1.3772,1.3747,1.3738,1.3734,1.3787,1.3787,1.3788,1.3788,0,0,1.3761,1.3769,1.3764,1.3764,1.3767,1.376,1.3749,1.3744,1.374,1.3737,1.3727,1.3716,1.3725,1.3721,1.3727,1.3717,1.3693,1.3728,1.3728,1.3721,1.3668,1.366,1.3655,1.3699,1.3698,1.3698,1.3668,0,1.373,1.3712,1.3723,1.3703,1.3696,1.3712,1.3702,1.3702,1.3705,1.3699,1.3702,1.3694,1.3707,1.3705,1.3696,1.3698,1.3683,1.3701,1.3689,1.3688,1.3689,1.365,1.3642,1.3614,1.3664,1.3664,1.3663,0,1.369,1.3688,1.3669,1.3674,1.3671,1.3663,1.366,1.3654,1.3654,1.3657,1.3654,1.3663,1.3651,1.3667,1.3651,1.3663,1.3659,1.366,1.3659,1.3657,1.3673,1.3647,1.3605,1.36,1.3657,1.3658,1.3658,0,1.3655,1.3648,1.3636,1.3636,1.3641,1.3635,1.3636,1.3638,1.3635,1.3632,1.363,1.3625,1.3622,1.3618,1.3624,1.3635,1.3608,1.3623,1.3609,1.3609,1.3601,1.3601,1.3557,1.36,1.36,1.36,1.36,0,1.3618,1.3605,1.3621,1.3613,1.36,1.3612,1.3598,1.3601,1.3602,1.3595,1.3607,1.36,1.361,1.3603,1.3608,1.3594,1.3593,1.3594,1.3596,1.3593,1.3592,1.3589,1.3591,1.3599,1.3599,1.36,1.36,0,1.3576,1.3586,1.3574,1.3582,1.3583,1.3573,1.3578,1.3571,1.3577,1.3567,1.3566,1.3573,1.3566,1.3573,1.3566,1.3569,1.3551,1.3555,1.3551,1.3552,1.3538,1.3539,1.3489,1.3483,1.353,1.353,1.353,0,1.3552,1.3543,1.355,1.3547,1.3549,1.3543,1.3541,1.3553,1.355,1.3551,1.3543,1.3538,1.3534,1.3522,1.3526,1.3521,1.3525,1.3508,1.3524,1.3522,1.3524,1.3524,1.3523,1.3504,1.3503,1.3503,1.3503,0,1.3507,1.3513,1.351,1.3509,1.3507,1.3506,1.3506,1.3503,1.3515,1.3511,1.3505,1.3502,1.3497,1.3491,1.3487,1.3488,1.3497,1.3498,1.3495,1.3491,1.3489,1.349,1.3542,1.3499,1.3499,1.3499,1.35,1.35,1.3473,1.3466,1.3471,1.3467,1.3469,1.347,1.3464,1.347,1.3466,1.3463,1.347,1.3462,1.3464,1.3461,1.346,1.3454,1.3461,1.3456,1.3454,1.3452,1.345,1.3491,1.3453,1.3453,1.3454,1.3454,1.3454,0,1.3428,1.3433,1.343,1.3431,1.3428,1.344,1.3441,1.3438,1.3432,1.3433,1.343,1.3424,1.3419,1.3424,1.342,1.3414,1.3418,1.3412,1.3412,1.3412,1.3444,1.3448,1.3409,1.3409,1.3409,1.3409,1.3409,1.3409,1.3405,1.3394,1.3401,1.3392,1.3396,1.339,1.339,1.339,1.3392,1.3385,1.3382,1.3386,1.3389,1.3385,1.3381,1.3383,1.338,1.3373,1.3376,1.3405,1.341,1.3414,1.3417,1.3372,1.3372,1.3344,1.3344,1.3343]}]]